AEHF-2 (USA 235)

Last updated on Thu Nov 21 2024 00:02:42 GMT+0000 (Coordinated Universal Time)

1 38254U 12019A 24325.07759946 -.00000133 00000+0 00000+0 0 9994 2 38254 5.3190 61.0168 0002683 168.7168 201.3337 1.00270543 1237
UTC large
Height (km)
Speed (km/s)
/
Latitude / Longitude
Inclination (degrees)
Orbital Period (minutes)
Azimuth
Elevation
Range (km)
Doppler Factor

Next 0 passes for location: London (51.5072 / 0.1276)

Sorry there are no passes over London.